STARLINK-35898 (66826 NORAD) Tracking and Keplerian Element Data

This shows tracking and keplerian element data for the satellite.

Feedback or suggestion? Click here.




ElementValue
Catalog66826
NameSTARLINK-35898
Epoch Orbit410
Epoch Day354.25003472
Epoch Year2025
RAAN177.835
Inclination69.9995
Eccentricity0.0003053
Argument of Perigee269.3525
Mean Anonmoly310.7695
Mean Motion15.52489707
Decay Rate0.00033258
L11 66826U 25280F 25354.25003472 .00033258 00000+0 54164-3 0 9990
L22 66826 69.9995 177.8350 0003053 269.3525 310.7695 15.52489707 4105



Live tracking and technical data element details for STARLINK-35898 (NORAD 66826). STARLINK-35898 can be tracked NOW for your location showing map with azimuth and elevation plus other details from your city location.







IsCatalogInMostPopularTable: catalog: 66826, numindb: 11
Update: records affected: 1



GetName: 66826 STARLINK-35898

Hit Count: updated at: Sat, 07 Feb 2026 08:01:00 GMT